THOR ABLESTAR DEB, 324

Orbit data source: Space-Track

THOR ABLESTAR DEB, 324 is space debris in LEO originally from a launch on Thu, 29 Jun 1961 UTC launched from the Air Force Eastern Test Range (AFETR). Debris objects in space refer to the collection of defunct objects orbiting the Earth. Examples of debris include non-operational satellites, rocket bodies, and fragments generated from explosions, collisions, or faulty payload assembly.

Loading next visibility...
Identifier
324, 1961-015DA
Orbit
LEO
Country
Flag of USUS
Related business
Manufacturer
Unknown
Mission
Spacecraft
Bus & Motor
Unknown
Mass
Unknown
Launch date (UTC)
1961-06-29 (64 years ago)
Launch vehicle
Unknown
Launch site
Air Force Eastern Test Range (AFETR)
Object type
Payload
Rocket body
Debris
Shape & HBR
Unknown shape, 0.1 m
Radar Cross Section
Small (<0.1 m²)

Expand to show TLE details & history
Last TLE update: 10 hours ago

TLE from 10 hours ago
0 THOR ABLESTAR DEB
1 00324U 61015DA  25351.12201898  .00000673  00000-0  39419-3 0  9994
2 00324  66.8621 131.2717 0066075 167.1020 193.1781 14.13142826297340
Epoch: 2025-12-17T02:55Z
TLE epoch observation values (Epoch: 2025-12-17T02:55:42.439Z)
Latitude
-0.00001°
Longitude
1.34845°
Altitude
897.255 km
Speed
7.38 km/s
True Right ascension
08h 45m 05s
True Declination
0° 00' 00"
Sunlit
Object was in full shadow at epoch
Visualization orbit readout
Latitude
Unknown
Longitude
Unknown
Altitude
Unknown
Speed
Unknown
Apparent Right ascension
Unknown
Apparent Declination
Unknown
Sunlit
N/A
Visualization observer readout
Local Sidereal Time
11:52:15
Azimuth
Unknown
Elevation
Unknown
Doppler factor
Unknown
Orbital elements
Apogee altitude
894.746 km
Perigee altitude
799.266 km
Semi-major axis
7,225.143 km
Eccentricity
0.00661
Inclination
66.8621°
RAAN
131.2717°
Arg. of periapsis
167.102°
True anomaly
193.00686°
Mean anomaly
193.1781°
Eccentric anomaly
193.09234°
Mean motion
3.53406 °/min
Orbital period
101.87 mins
BSTAR
0.00039419

Documentation

Showing up to 5 results
|